Time,TemperatureF,DewpointF,PressureIn,WindDirection,WindDirectionDegrees,WindSpeedMPH,WindSpeedGustMPH,Humidity,HourlyPrecipIn,Conditions,Clouds,dailyrainin,SoftwareType,DateUTC
2013-02-22 00:01:00,25.0,21.0,30.10,ENE,59,3.0,12.0,83,0.00,,,0.00,,2013-02-22 06:01:00,
2013-02-22 00:11:00,25.0,21.0,30.10,ENE,59,3.0,12.0,83,0.00,,,0.00,,2013-02-22 06:11:00,
2013-02-22 00:22:00,24.0,20.0,30.09,ESE,103,3.0,10.0,83,0.00,,,0.00,,2013-02-22 06:22:00,
2013-02-22 00:31:00,24.0,20.0,30.09,East,86,7.0,9.0,84,0.00,,,0.00,,2013-02-22 06:31:00,
2013-02-22 00:42:00,24.0,20.0,30.09,East,86,7.0,9.0,84,0.00,,,0.00,,2013-02-22 06:42:00,
2013-02-22 00:51:00,24.0,20.0,30.07,East,88,5.0,12.0,86,0.00,,,0.00,,2013-02-22 06:51:00,
2013-02-22 01:01:00,24.0,21.0,30.06,ENE,78,7.0,13.0,87,0.00,,,0.00,,2013-02-22 07:01:00,
2013-02-22 01:11:00,24.0,21.0,30.06,ENE,78,7.0,13.0,87,0.00,,,0.00,,2013-02-22 07:11:00,
2013-02-22 01:21:00,24.0,21.0,30.05,East,93,3.0,10.0,88,0.00,,,0.00,,2013-02-22 07:21:00,
2013-02-22 01:31:00,23.0,20.0,30.04,NE,34,4.0,9.0,89,0.00,,,0.00,,2013-02-22 07:31:00,
2013-02-22 01:42:00,23.0,20.0,30.04,NE,34,4.0,9.0,89,0.00,,,0.00,,2013-02-22 07:42:00,
2013-02-22 01:51:00,23.0,20.0,30.03,ENE,74,5.0,13.0,89,0.00,,,0.00,,2013-02-22 07:51:00,
2013-02-22 02:01:00,23.0,20.0,30.00,NNE,32,4.0,11.0,89,0.01,,,0.01,,2013-02-22 08:01:00,
2013-02-22 02:11:00,23.0,20.0,30.00,NNE,32,4.0,11.0,89,0.01,,,0.01,,2013-02-22 08:11:00,
2013-02-22 02:21:00,23.0,21.0,29.98,NE,49,3.0,13.0,90,0.01,,,0.01,,2013-02-22 08:21:00,
2013-02-22 02:31:00,23.0,21.0,29.97,ENE,73,9.0,12.0,90,0.01,,,0.01,,2013-02-22 08:31:00,
2013-02-22 02:41:00,23.0,21.0,29.97,ENE,73,9.0,12.0,90,0.01,,,0.01,,2013-02-22 08:41:00,
2013-02-22 02:52:00,22.0,20.0,29.98,NE,35,4.0,15.0,90,0.02,,,0.02,,2013-02-22 08:52:00,
2013-02-22 03:03:00,22.0,20.0,29.96,ENE,69,5.0,10.0,90,0.01,,,0.02,,2013-02-22 09:03:00,
2013-02-22 03:11:00,22.0,20.0,29.96,ENE,75,8.0,12.0,90,0.03,,,0.04,,2013-02-22 09:11:00,
2013-02-22 03:21:00,22.0,20.0,29.96,ENE,75,8.0,12.0,90,0.03,,,0.04,,2013-02-22 09:21:00,
2013-02-22 03:32:00,23.0,21.0,29.98,ENE,73,3.0,13.0,90,0.04,,,0.05,,2013-02-22 09:32:00,
2013-02-22 03:42:00,23.0,21.0,29.98,ENE,73,3.0,13.0,90,0.04,,,0.05,,2013-02-22 09:42:00,
2013-02-22 03:52:00,23.0,21.0,29.98,ESE,107,5.0,10.0,90,0.04,,,0.06,,2013-02-22 09:52:00,
2013-02-22 04:01:00,23.0,21.0,29.98,ESE,114,3.0,9.0,90,0.04,,,0.07,,2013-02-22 10:01:00,
2013-02-22 04:11:00,23.0,21.0,29.98,ESE,114,3.0,9.0,90,0.04,,,0.07,,2013-02-22 10:11:00,
2013-02-22 04:21:00,23.0,21.0,29.97,East,84,6.0,7.0,90,0.04,,,0.08,,2013-02-22 10:21:00,
2013-02-22 04:32:00,23.0,21.0,29.96,NE,55,3.0,10.0,90,0.03,,,0.08,,2013-02-22 10:32:00,
2013-02-22 04:42:00,23.0,21.0,29.96,NE,55,3.0,10.0,90,0.03,,,0.08,,2013-02-22 10:42:00,
2013-02-22 04:51:00,23.0,21.0,29.96,SE,128,5.0,8.0,90,0.03,,,0.09,,2013-02-22 10:51:00,
2013-02-22 05:01:00,23.0,21.0,29.95,ENE,74,2.0,8.0,90,0.03,,,0.10,,2013-02-22 11:01:00,
2013-02-22 05:11:00,23.0,21.0,29.95,ENE,74,2.0,8.0,90,0.03,,,0.10,,2013-02-22 11:11:00,
2013-02-22 05:21:00,23.0,21.0,29.95,East,90,2.0,7.0,90,0.02,,,0.10,,2013-02-22 11:21:00,
2013-02-22 05:32:00,23.0,21.0,29.95,ENE,76,3.0,7.0,90,0.03,,,0.11,,2013-02-22 11:32:00,
2013-02-22 05:42:00,23.0,21.0,29.95,ENE,76,3.0,7.0,90,0.03,,,0.11,,2013-02-22 11:42:00,
2013-02-22 05:52:00,23.0,21.0,29.94,ESE,108,4.0,7.0,90,0.02,,,0.11,,2013-02-22 11:52:00,
2013-02-22 06:02:00,23.0,21.0,29.93,NE,50,3.0,10.0,90,0.01,,,0.11,,2013-02-22 12:02:00,
2013-02-22 06:11:00,23.0,21.0,29.93,NE,50,3.0,10.0,90,0.01,,,0.11,,2013-02-22 12:11:00,
2013-02-22 06:22:00,23.0,21.0,29.92,ENE,61,3.0,7.0,90,0.01,,,0.11,,2013-02-22 12:22:00,
2013-02-22 06:32:00,24.0,22.0,29.92,East,88,1.0,7.0,90,0.00,,,0.11,,2013-02-22 12:32:00,
2013-02-22 06:42:00,24.0,22.0,29.92,East,88,1.0,7.0,90,0.00,,,0.11,,2013-02-22 12:42:00,
2013-02-22 06:52:00,24.0,22.0,29.91,SE,127,3.0,6.0,90,0.00,,,0.11,,2013-02-22 12:52:00,
2013-02-22 07:01:00,24.0,22.0,29.91,East,80,3.0,5.0,90,0.00,,,0.11,,2013-02-22 13:01:00,
2013-02-22 07:11:00,24.0,22.0,29.91,East,80,3.0,5.0,90,0.00,,,0.11,,2013-02-22 13:11:00,
2013-02-22 07:22:00,24.0,22.0,29.91,ENE,69,1.0,6.0,90,0.00,,,0.11,,2013-02-22 13:22:00,
2013-02-22 07:32:00,24.0,22.0,29.91,ENE,67,2.0,5.0,90,0.00,,,0.11,,2013-02-22 13:32:00,
2013-02-22 07:42:00,24.0,22.0,29.91,ENE,67,2.0,5.0,90,0.00,,,0.11,,2013-02-22 13:42:00,
2013-02-22 07:52:00,25.0,22.0,29.90,ESE,111,2.0,3.0,90,0.00,,,0.11,,2013-02-22 13:52:00,
2013-02-22 08:01:00,25.0,22.0,29.89,ENE,74,2.0,5.0,90,0.00,,,0.11,,2013-02-22 14:01:00,
2013-02-22 08:11:00,25.0,22.0,29.88,NE,55,1.0,4.0,90,0.00,,,0.11,,2013-02-22 14:11:00,
2013-02-22 08:21:00,25.0,22.0,29.88,NE,55,1.0,4.0,90,0.00,,,0.11,,2013-02-22 14:21:00,
2013-02-22 08:32:00,26.0,23.0,29.87,ENE,64,1.0,9.0,90,0.00,,,0.11,,2013-02-22 14:32:00,
2013-02-22 08:42:00,26.0,23.0,29.87,ENE,64,1.0,9.0,90,0.00,,,0.11,,2013-02-22 14:42:00,
2013-02-22 08:53:00,26.0,23.0,29.87,ENE,71,2.0,6.0,90,0.00,,,0.11,,2013-02-22 14:53:00,
2013-02-22 09:01:00,27.0,24.0,29.87,ENE,64,2.0,7.0,90,0.00,,,0.11,,2013-02-22 15:01:00,
2013-02-22 09:11:00,27.0,24.0,29.87,ENE,64,2.0,7.0,90,0.00,,,0.11,,2013-02-22 15:11:00,
2013-02-22 09:21:00,27.0,24.0,29.87,SE,134,1.0,6.0,90,0.00,,,0.11,,2013-02-22 15:21:00,
2013-02-22 09:32:00,27.0,24.0,29.87,East,101,1.0,4.0,90,0.00,,,0.11,,2013-02-22 15:32:00,
2013-02-22 09:41:00,27.0,24.0,29.87,East,101,1.0,4.0,90,0.00,,,0.11,,2013-02-22 15:41:00,
2013-02-22 09:52:00,27.0,24.0,29.87,SE,140,3.0,7.0,90,0.00,,,0.11,,2013-02-22 15:52:00,
2013-02-22 10:01:00,27.0,24.0,29.86,ESE,103,2.0,9.0,90,0.00,,,0.11,,2013-02-22 16:01:00,
2013-02-22 10:12:00,27.0,24.0,29.86,ESE,103,2.0,9.0,90,0.00,,,0.11,,2013-02-22 16:12:00,
2013-02-22 10:21:00,28.0,25.0,29.87,SE,146,3.0,9.0,90,0.00,,,0.11,,2013-02-22 16:21:00,
2013-02-22 10:31:00,28.0,25.0,29.87,ESE,115,2.0,7.0,90,0.00,,,0.11,,2013-02-22 16:31:00,
2013-02-22 10:42:00,28.0,25.0,29.87,ESE,115,2.0,7.0,90,0.00,,,0.11,,2013-02-22 16:42:00,
2013-02-22 10:52:00,28.0,25.0,29.87,SE,126,3.0,8.0,90,0.00,,,0.11,,2013-02-22 16:52:00,
2013-02-22 11:01:00,28.0,25.0,29.86,SSE,148,4.0,7.0,90,0.00,,,0.11,,2013-02-22 17:01:00,
2013-02-22 11:11:00,28.0,25.0,29.86,SSE,148,4.0,7.0,90,0.00,,,0.11,,2013-02-22 17:11:00,
2013-02-22 11:21:00,28.0,25.0,29.87,SE,136,3.0,4.0,90,0.01,,,0.12,,2013-02-22 17:21:00,
2013-02-22 11:31:00,28.0,25.0,29.87,SE,132,3.0,4.0,90,0.01,,,0.12,,2013-02-22 17:31:00,
2013-02-22 11:42:00,28.0,25.0,29.87,SE,132,3.0,4.0,90,0.01,,,0.12,,2013-02-22 17:42:00,
2013-02-22 11:52:00,28.0,25.0,29.87,SE,137,3.0,4.0,90,0.01,,,0.12,,2013-02-22 17:52:00,
2013-02-22 12:01:00,28.0,25.0,29.86,SE,129,2.0,4.0,90,0.01,,,0.12,,2013-02-22 18:01:00,
2013-02-22 12:12:00,29.0,26.0,29.85,SSE,159,3.0,3.0,90,0.00,,,0.12,,2013-02-22 18:12:00,
2013-02-22 12:22:00,29.0,26.0,29.85,SSE,159,3.0,3.0,90,0.00,,,0.12,,2013-02-22 18:22:00,
2013-02-22 12:32:00,29.0,26.0,29.85,SSE,159,2.0,5.0,90,0.01,,,0.13,,2013-02-22 18:32:00,
2013-02-22 12:42:00,29.0,26.0,29.85,SSE,159,2.0,5.0,90,0.01,,,0.13,,2013-02-22 18:42:00,
2013-02-22 12:51:00,30.0,27.0,29.84,SSE,160,2.0,3.0,89,0.01,,,0.13,,2013-02-22 18:51:00,
2013-02-22 13:01:00,30.0,27.0,29.83,SSE,161,0.0,3.0,89,0.01,,,0.13,,2013-02-22 19:01:00,
2013-02-22 13:11:00,30.0,27.0,29.83,SSE,161,1.0,2.0,89,0.01,,,0.13,,2013-02-22 19:11:00,
2013-02-22 13:21:00,30.0,27.0,29.83,SSE,161,1.0,2.0,89,0.01,,,0.13,,2013-02-22 19:21:00,
2013-02-22 13:31:00,30.0,27.0,29.82,SSE,161,1.0,3.0,89,0.00,,,0.13,,2013-02-22 19:31:00,
2013-02-22 13:41:00,30.0,27.0,29.82,SSE,161,1.0,3.0,89,0.00,,,0.13,,2013-02-22 19:41:00,
2013-02-22 13:52:00,30.0,27.0,29.81,SSE,161,0.0,3.0,89,0.00,,,0.13,,2013-02-22 19:52:00,
2013-02-22 14:01:00,30.0,27.0,29.81,SSE,160,1.0,4.0,89,0.00,,,0.13,,2013-02-22 20:01:00,
2013-02-22 14:11:00,30.0,27.0,29.81,SSE,160,1.0,4.0,89,0.00,,,0.13,,2013-02-22 20:11:00,
2013-02-22 14:21:00,30.0,27.0,29.82,SSE,160,0.0,4.0,89,0.00,,,0.13,,2013-02-22 20:21:00,
2013-02-22 14:31:00,30.0,27.0,29.82,SSE,160,0.0,3.0,88,0.00,,,0.13,,2013-02-22 20:31:00,
2013-02-22 14:41:00,30.0,27.0,29.82,SSE,160,0.0,3.0,88,0.00,,,0.13,,2013-02-22 20:41:00,
2013-02-22 14:52:00,30.0,27.0,29.82,SSE,167,0.0,3.0,88,0.00,,,0.13,,2013-02-22 20:52:00,
2013-02-22 15:01:00,30.0,27.0,29.83,SSE,167,0.0,2.0,87,0.00,,,0.13,,2013-02-22 21:01:00,
2013-02-22 15:11:00,30.0,27.0,29.83,SSE,167,0.0,2.0,87,0.00,,,0.13,,2013-02-22 21:11:00,
2013-02-22 15:21:00,29.0,26.0,29.84,SSE,167,3.0,3.0,88,0.00,,,0.13,,2013-02-22 21:21:00,
2013-02-22 15:32:00,29.0,26.0,29.84,SSE,167,0.0,3.0,89,0.00,,,0.13,,2013-02-22 21:32:00,
2013-02-22 15:42:00,29.0,26.0,29.84,SSE,167,0.0,3.0,89,0.00,,,0.13,,2013-02-22 21:42:00,
2013-02-22 15:52:00,29.0,26.0,29.84,SSE,167,3.0,3.0,89,0.00,,,0.13,,2013-02-22 21:52:00,
2013-02-22 16:01:00,29.0,26.0,29.84,SSE,168,2.0,3.0,89,0.00,,,0.13,,2013-02-22 22:01:00,
2013-02-22 16:11:00,29.0,26.0,29.84,SSE,168,2.0,3.0,89,0.00,,,0.13,,2013-02-22 22:11:00,
2013-02-22 16:21:00,29.0,26.0,29.83,South,169,0.0,3.0,89,0.00,,,0.13,,2013-02-22 22:21:00,
2013-02-22 16:31:00,29.0,26.0,29.83,South,169,1.0,4.0,89,0.00,,,0.13,,2013-02-22 22:31:00,
2013-02-22 16:41:00,29.0,26.0,29.83,South,169,1.0,4.0,89,0.00,,,0.13,,2013-02-22 22:41:00,
2013-02-22 16:51:00,29.0,26.0,29.82,WNW,299,3.0,4.0,89,0.00,,,0.13,,2013-02-22 22:51:00,
2013-02-22 17:01:00,29.0,26.0,29.83,WNW,298,1.0,4.0,88,0.00,,,0.13,,2013-02-22 23:01:00,
2013-02-22 17:11:00,29.0,26.0,29.83,WNW,298,1.0,4.0,88,0.00,,,0.13,,2013-02-22 23:11:00,
2013-02-22 17:21:00,29.0,26.0,29.83,WNW,298,0.0,4.0,89,0.00,,,0.13,,2013-02-22 23:21:00,
2013-02-22 17:31:00,29.0,26.0,29.83,WNW,298,1.0,3.0,89,0.00,,,0.13,,2013-02-22 23:31:00,
2013-02-22 17:41:00,29.0,26.0,29.83,WNW,298,1.0,3.0,89,0.00,,,0.13,,2013-02-22 23:41:00,
2013-02-22 17:52:00,29.0,26.0,29.84,WNW,298,0.0,2.0,89,0.00,,,0.13,,2013-02-22 23:52:00,
2013-02-22 18:01:00,29.0,26.0,29.84,WNW,298,0.0,3.0,89,0.00,,,0.13,,2013-02-23 00:01:00,
2013-02-22 18:11:00,29.0,26.0,29.84,WNW,298,0.0,3.0,89,0.00,,,0.13,,2013-02-23 00:11:00,
2013-02-22 18:21:00,28.0,25.0,29.84,WNW,298,0.0,2.0,89,0.00,,,0.13,,2013-02-23 00:21:00,
2013-02-22 18:32:00,28.0,25.0,29.85,West,273,0.0,4.0,89,0.00,,,0.13,,2013-02-23 00:32:00,
2013-02-22 18:42:00,28.0,25.0,29.85,West,273,0.0,4.0,89,0.00,,,0.13,,2013-02-23 00:42:00,
2013-02-22 18:51:00,28.0,25.0,29.85,West,273,1.0,4.0,89,0.00,,,0.13,,2013-02-23 00:51:00,
2013-02-22 19:01:00,28.0,25.0,29.85,West,263,0.0,4.0,89,0.00,,,0.13,,2013-02-23 01:01:00,
2013-02-22 19:11:00,28.0,25.0,29.85,West,263,0.0,4.0,89,0.00,,,0.13,,2013-02-23 01:11:00,
2013-02-22 19:21:00,28.0,25.0,29.85,WSW,251,1.0,4.0,89,0.00,,,0.13,,2013-02-23 01:21:00,
2013-02-22 19:31:00,28.0,25.0,29.85,WSW,251,0.0,2.0,89,0.00,,,0.13,,2013-02-23 01:31:00,
2013-02-22 19:42:00,28.0,25.0,29.85,WSW,251,0.0,2.0,89,0.00,,,0.13,,2013-02-23 01:42:00,
2013-02-22 19:51:00,28.0,25.0,29.85,WSW,251,0.0,2.0,89,0.00,,,0.13,,2013-02-23 01:51:00,
2013-02-22 20:01:00,28.0,25.0,29.85,WSW,251,0.0,2.0,89,0.00,,,0.13,,2013-02-23 02:01:00,
2013-02-22 20:11:00,28.0,25.0,29.85,WSW,251,0.0,3.0,89,0.00,,,0.13,,2013-02-23 02:11:00,
2013-02-22 20:21:00,28.0,25.0,29.85,WSW,251,0.0,3.0,89,0.00,,,0.13,,2013-02-23 02:21:00,
2013-02-22 20:31:00,27.0,24.0,29.85,WSW,252,1.0,4.0,89,0.00,,,0.13,,2013-02-23 02:31:00,
2013-02-22 20:42:00,27.0,24.0,29.85,WSW,252,1.0,4.0,89,0.00,,,0.13,,2013-02-23 02:42:00,
2013-02-22 20:52:00,27.0,24.0,29.85,WSW,252,2.0,3.0,89,0.00,,,0.13,,2013-02-23 02:52:00,
2013-02-22 21:01:00,27.0,24.0,29.86,SW,225,0.0,6.0,89,0.00,,,0.13,,2013-02-23 03:01:00,
2013-02-22 21:11:00,27.0,24.0,29.86,SW,225,0.0,6.0,89,0.00,,,0.13,,2013-02-23 03:11:00,
2013-02-22 21:21:00,28.0,25.0,29.86,WSW,238,2.0,6.0,88,0.00,,,0.13,,2013-02-23 03:21:00,
2013-02-22 21:32:00,28.0,25.0,29.86,WSW,248,3.0,5.0,88,0.00,,,0.13,,2013-02-23 03:32:00,
2013-02-22 21:41:00,28.0,25.0,29.86,WSW,248,3.0,5.0,88,0.00,,,0.13,,2013-02-23 03:41:00,
2013-02-22 21:51:00,28.0,25.0,29.86,West,270,3.0,6.0,88,0.00,,,0.13,,2013-02-23 03:51:00,
2013-02-22 22:01:00,27.0,24.0,29.85,WSW,251,1.0,7.0,88,0.00,,,0.13,,2013-02-23 04:01:00,
2013-02-22 22:11:00,27.0,24.0,29.85,West,276,3.0,6.0,87,0.00,,,0.13,,2013-02-23 04:11:00,
2013-02-22 22:21:00,27.0,24.0,29.85,West,276,3.0,6.0,87,0.00,,,0.13,,2013-02-23 04:21:00,
2013-02-22 22:31:00,27.0,24.0,29.85,WSW,256,1.0,6.0,87,0.00,,,0.13,,2013-02-23 04:31:00,
2013-02-22 22:41:00,27.0,24.0,29.85,WSW,256,1.0,6.0,87,0.00,,,0.13,,2013-02-23 04:41:00,
2013-02-22 22:51:00,27.0,24.0,29.85,WSW,257,3.0,6.0,87,0.00,,,0.13,,2013-02-23 04:51:00,
2013-02-22 23:02:00,27.0,24.0,29.85,West,263,2.0,5.0,87,0.00,,,0.13,,2013-02-23 05:02:00,
2013-02-22 23:12:00,27.0,24.0,29.85,West,263,2.0,5.0,87,0.00,,,0.13,,2013-02-23 05:12:00,
2013-02-22 23:22:00,27.0,24.0,29.85,West,259,4.0,6.0,87,0.00,,,0.13,,2013-02-23 05:22:00,
2013-02-22 23:32:00,27.0,24.0,29.85,WSW,255,2.0,7.0,87,0.00,,,0.13,,2013-02-23 05:32:00,
2013-02-22 23:41:00,27.0,24.0,29.85,WSW,255,2.0,7.0,87,0.00,,,0.13,,2013-02-23 05:41:00,
2013-02-22 23:52:00,27.0,24.0,29.85,SW,236,1.0,5.0,87,0.00,,,0.13,,2013-02-23 05:52:00,